This is the latest recevied weather packets stored in our database for station/object KE8ZLU. If no packets are shown the sender has not sent any weather packets the latest 10 day(s).
| Time | Temp. | Humidity | Pressure | Rain* | Wind** | Luminosity | Snow |
|---|---|---|---|---|---|---|---|
| 1777643487 | 6.11° C | 80% | 1015 hPa | 0 mm | - | 382 W/m² | - |
| 1777643183 | 6.11° C | 83% | 1015.1 hPa | 0 mm | - | 441 W/m² | - |
| 1777642880 | 5.56° C | 84% | 1015.1 hPa | 0 mm | - | 381 W/m² | - |
| 1777642577 | 5° C | 86% | 1015.3 hPa | 0 mm | - | 235 W/m² | - |
| 1777642274 | 5° C | 86% | 1015.2 hPa | 0 mm | - | 192 W/m² | - |
| 1777641971 | 5° C | 86% | 1015.3 hPa | 0 mm | - | 127 W/m² | - |
| 1777641666 | 5° C | 87% | 1015.3 hPa | 0 mm | - | 131 W/m² | - |
| 1777641356 | 4.44° C | 87% | 1015.2 hPa | 0 mm | - | 108 W/m² | - |
| 1777641052 | 4.44° C | 87% | 1015.3 hPa | 0 mm | - | 88 W/m² | - |
| 1777640748 | 4.44° C | 87% | 1015.4 hPa | 0 mm | - | 105 W/m² | - |
| 1777640445 | 4.44° C | 87% | 1015.1 hPa | 0 mm | - | 121 W/m² | - |
| 1777640142 | 5° C | 87% | 1015.2 hPa | 0 mm | - | 156 W/m² | - |
| 1777639839 | 4.44° C | 87% | 1015.4 hPa | 0 mm | - | 139 W/m² | - |
| 1777639536 | 4.44° C | 86% | 1015.4 hPa | 0 mm | - | 126 W/m² | - |
| 1777639233 | 4.44° C | 86% | 1015.5 hPa | 0 mm | - | 175 W/m² | - |
| 1777638928 | 4.44° C | 86% | 1015.5 hPa | 0 mm | - | 108 W/m² | - |
| 1777638624 | 4.44° C | 86% | 1015.3 hPa | 0 mm | - | 93 W/m² | - |
| 1777638321 | 4.44° C | 85% | 1015.3 hPa | 0 mm | - | 94 W/m² | - |
| 1777638017 | 4.44° C | 85% | 1015.4 hPa | 0 mm | - | 137 W/m² | - |
| 1777637714 | 3.89° C | 84% | 1015.1 hPa | 0 mm | - | 91 W/m² | - |
| 1777637410 | 4.44° C | 85% | 1015.3 hPa | 0 mm | - | 83 W/m² | - |
| 1777637108 | 3.89° C | 84% | 1014.8 hPa | 0 mm | - | 66 W/m² | - |
| 1777636803 | 3.89° C | 83% | 1015.1 hPa | 0 mm | - | 56 W/m² | - |
| 1777636500 | 3.89° C | 83% | 1015.2 hPa | 0 mm | - | 50 W/m² | - |
| 1777636196 | 3.89° C | 84% | 1015.1 hPa | 0 mm | - | 42 W/m² | - |
* Rain latest hour (hover to see other rain measurements)
** Current wind speed in m/s (hover to see current wind gust speed)